Погода в Сосновке

Россия / Пензенская область     53°16′57″N   45°18′19″E
темп.,
°C
ветер,
м/с
пор.,
м/с
влажн.,
%
обл.,
%
осадки,
мм/ч
давл.,
гПа
погр.,
м
19 апреля, пн
пн1900:00+8св41171100 0.1 1019277
03:00+6св41079100 0.1 1020312
06:00+6всв41181100 0.0 1019493
09:00+8в5107099 0.1 1020834
12:00+11в6953100 0.3 10191388
15:00+11в6852100 0.3 10191502
18:00+10в5960100 0.0 10201136
21:00+7в61166100 0.0 10211001
20 апреля, вт
вт2000:00+3в51389100 0.1 1022718
03:00+3в51396100 0.9 1022704
06:00+4вюв61485100 0.7 1022795
09:00+3вюв71580100 1.6 1023810
12:00+4вюв71572100 0.0 1023838
15:00+4вюв71670100 0.0 1022873
18:00+5вюв71768100 0.0 1020948
21:00+7вюв81765100 0.1 10181018
21 апреля, ср
ср2100:00+5вюв92077100 1.0 1016943
03:00+4юв102185100 5.2 1014950
06:00+4юв91989100 0.1 1014861
09:00+4юв91991100 0.1 1014760
12:00+5ююв81789100 0.3 1015800
15:00+5ююв71593100 0.4 1016678
18:00+5ююв51396100 0.3 1017581
21:00+5ююв41098100 0.5 1019363
22 апреля, чт
чт2200:00+5юв4998100 0.1 1020310
03:00+5ююв3798100 0.1 1020300
06:00+5юв3898100 3.2 1020378
09:00+6ююв3797100 5.0 1021391
12:00+11ююз377524 0.4 10211060
15:00+13юз366392 0.8 10211297
18:00+11юз22675 0.0 102339
21:00+7ююв22775 0.0 102410
23 апреля, пт
пт2300:00+6ююв22785 0.0 102523
03:00+5юв24835 0.0 102574
06:00+7юв268699 0.0 1025149
09:00+12ююв367096 0.0 1025440
12:00+16ююв344497 0.2 10232207
15:00+14ююв2558100 0.2 1023273
18:00+12юв236992 0.1 102258
21:00+8юв258211 0.1 102277